Time,TemperatureF,DewpointF,PressureIn,WindDirection,WindDirectionDegrees,WindSpeedMPH,WindSpeedGustMPH,Humidity,HourlyPrecipIn,Conditions,Clouds,dailyrainin,SoftwareType,DateUTC
2013-06-26 00:02:00,49.0,27.0,29.95,East,96,0.0,-999.0,43,-99.99,,,-99.99,,2013-06-26 06:02:00,
2013-06-26 00:11:00,50.0,28.0,29.96,East,96,0.0,-999.0,43,-99.99,,,-99.99,,2013-06-26 06:11:00,
2013-06-26 00:22:00,50.0,28.0,29.96,East,96,0.0,-999.0,43,-99.99,,,-99.99,,2013-06-26 06:22:00,
2013-06-26 00:34:00,49.0,27.0,29.96,East,96,0.0,-999.0,43,-99.99,,,-99.99,,2013-06-26 06:34:00,
2013-06-26 00:43:00,49.0,27.0,29.96,East,96,0.0,-999.0,43,-99.99,,,-99.99,,2013-06-26 06:43:00,
2013-06-26 00:53:00,49.0,27.0,29.96,East,96,0.0,-999.0,43,-99.99,,,-99.99,,2013-06-26 06:53:00,
2013-06-26 01:01:00,49.0,27.0,29.95,East,96,0.0,-999.0,42,-99.99,,,-99.99,,2013-06-26 07:01:00,
2013-06-26 01:11:00,49.0,27.0,29.95,East,96,0.0,-999.0,42,-99.99,,,-99.99,,2013-06-26 07:11:00,
2013-06-26 01:22:00,49.0,27.0,29.95,East,96,0.0,-999.0,42,-99.99,,,-99.99,,2013-06-26 07:22:00,
2013-06-26 01:33:00,48.0,28.0,29.95,East,96,0.0,-999.0,45,-99.99,,,-99.99,,2013-06-26 07:33:00,
2013-06-26 01:43:00,46.0,27.0,29.95,East,96,0.0,-999.0,48,-99.99,,,-99.99,,2013-06-26 07:43:00,
2013-06-26 01:53:00,46.0,27.0,29.95,East,96,0.0,-999.0,48,-99.99,,,-99.99,,2013-06-26 07:53:00,
2013-06-26 02:01:00,45.0,27.0,29.95,East,96,0.0,-999.0,48,-99.99,,,-99.99,,2013-06-26 08:01:00,
2013-06-26 02:11:00,45.0,26.0,29.95,East,96,0.0,-999.0,47,-99.99,,,-99.99,,2013-06-26 08:11:00,
2013-06-26 02:22:00,45.0,26.0,29.95,East,96,0.0,-999.0,47,-99.99,,,-99.99,,2013-06-26 08:22:00,
2013-06-26 02:33:00,45.0,27.0,29.95,East,96,0.0,-999.0,49,-99.99,,,-99.99,,2013-06-26 08:33:00,
2013-06-26 02:42:00,43.0,27.0,29.95,East,96,0.0,-999.0,52,-99.99,,,-99.99,,2013-06-26 08:42:00,
2013-06-26 02:52:00,43.0,27.0,29.95,East,96,0.0,-999.0,52,-99.99,,,-99.99,,2013-06-26 08:52:00,
2013-06-26 03:01:00,42.0,27.0,29.95,East,96,0.0,-999.0,54,-99.99,,,-99.99,,2013-06-26 09:01:00,
2013-06-26 03:11:00,41.0,26.0,29.94,East,96,0.0,-999.0,55,-99.99,,,-99.99,,2013-06-26 09:11:00,
2013-06-26 03:22:00,41.0,26.0,29.94,East,96,0.0,-999.0,55,-99.99,,,-99.99,,2013-06-26 09:22:00,
2013-06-26 03:33:00,41.0,27.0,29.94,East,96,0.0,-999.0,56,-99.99,,,-99.99,,2013-06-26 09:33:00,
2013-06-26 03:43:00,41.0,27.0,29.94,East,96,0.0,-999.0,56,-99.99,,,-99.99,,2013-06-26 09:43:00,
2013-06-26 03:53:00,41.0,27.0,29.94,East,96,0.0,-999.0,56,-99.99,,,-99.99,,2013-06-26 09:53:00,
2013-06-26 04:01:00,41.0,26.0,29.95,East,96,0.0,-999.0,55,-99.99,,,-99.99,,2013-06-26 10:01:00,
2013-06-26 04:12:00,42.0,26.0,29.96,East,96,0.0,-999.0,53,-99.99,,,-99.99,,2013-06-26 10:12:00,
2013-06-26 04:22:00,42.0,26.0,29.96,East,96,0.0,-999.0,53,-99.99,,,-99.99,,2013-06-26 10:22:00,
2013-06-26 04:34:00,42.0,25.0,29.97,East,96,0.0,-999.0,51,-99.99,,,-99.99,,2013-06-26 10:34:00,
2013-06-26 04:43:00,42.0,25.0,29.97,East,96,0.0,-999.0,51,-99.99,,,-99.99,,2013-06-26 10:43:00,
2013-06-26 04:53:00,42.0,25.0,29.97,East,96,0.0,-999.0,51,-99.99,,,-99.99,,2013-06-26 10:53:00,
2013-06-26 05:02:00,41.0,25.0,29.97,East,96,0.0,-999.0,52,-99.99,,,-99.99,,2013-06-26 11:02:00,
2013-06-26 05:11:00,40.0,25.0,29.97,East,96,0.0,-999.0,54,-99.99,,,-99.99,,2013-06-26 11:11:00,
2013-06-26 05:22:00,40.0,25.0,29.97,East,96,0.0,-999.0,54,-99.99,,,-99.99,,2013-06-26 11:22:00,
2013-06-26 05:33:00,39.0,25.0,29.98,East,96,0.0,-999.0,56,-99.99,,,-99.99,,2013-06-26 11:33:00,
2013-06-26 05:44:00,37.0,24.0,29.97,East,96,0.0,-999.0,58,-99.99,,,-99.99,,2013-06-26 11:44:00,
2013-06-26 05:52:00,37.0,24.0,29.97,East,96,0.0,-999.0,58,-99.99,,,-99.99,,2013-06-26 11:52:00,
2013-06-26 06:02:00,37.0,24.0,29.98,East,96,0.0,-999.0,59,-99.99,,,-99.99,,2013-06-26 12:02:00,
2013-06-26 06:12:00,36.0,23.0,29.98,East,96,0.0,-999.0,60,-99.99,,,-99.99,,2013-06-26 12:12:00,
2013-06-26 06:22:00,36.0,23.0,29.98,East,96,0.0,-999.0,60,-99.99,,,-99.99,,2013-06-26 12:22:00,
2013-06-26 06:33:00,36.0,24.0,29.99,East,96,0.0,-999.0,61,-99.99,,,-99.99,,2013-06-26 12:33:00,
2013-06-26 06:42:00,37.0,26.0,29.99,East,96,0.0,-999.0,63,-99.99,,,-99.99,,2013-06-26 12:42:00,
2013-06-26 06:52:00,37.0,26.0,29.99,East,96,0.0,-999.0,63,-99.99,,,-99.99,,2013-06-26 12:52:00,
2013-06-26 07:02:00,37.0,26.0,29.99,East,96,0.0,-999.0,64,-99.99,,,-99.99,,2013-06-26 13:02:00,
2013-06-26 07:11:00,39.0,29.0,29.99,East,96,0.0,-999.0,66,-99.99,,,-99.99,,2013-06-26 13:11:00,
2013-06-26 07:22:00,39.0,29.0,29.99,East,96,0.0,-999.0,66,-99.99,,,-99.99,,2013-06-26 13:22:00,
2013-06-26 07:34:00,41.0,30.0,29.99,East,96,0.0,-999.0,65,-99.99,,,-99.99,,2013-06-26 13:34:00,
2013-06-26 07:42:00,43.0,33.0,29.99,East,96,0.0,-999.0,67,-99.99,,,-99.99,,2013-06-26 13:42:00,
2013-06-26 07:53:00,43.0,33.0,29.99,East,96,0.0,-999.0,67,-99.99,,,-99.99,,2013-06-26 13:53:00,
2013-06-26 08:02:00,46.0,32.0,29.99,East,96,0.0,-999.0,58,-99.99,,,-99.99,,2013-06-26 14:02:00,
2013-06-26 08:34:00,54.0,32.0,29.99,East,101,0.0,-999.0,43,-99.99,,,-99.99,,2013-06-26 14:34:00,
2013-06-26 08:42:00,54.0,32.0,29.99,East,101,0.0,-999.0,43,-99.99,,,-99.99,,2013-06-26 14:42:00,
2013-06-26 08:52:00,54.0,32.0,29.99,East,101,0.0,-999.0,43,-99.99,,,-99.99,,2013-06-26 14:52:00,
2013-06-26 09:02:00,58.0,33.0,29.99,West,265,0.0,-999.0,38,-99.99,,,-99.99,,2013-06-26 15:02:00,
2013-06-26 09:11:00,60.0,33.0,29.99,WNW,300,1.0,-999.0,36,-99.99,,,-99.99,,2013-06-26 15:11:00,
2013-06-26 09:22:00,60.0,33.0,29.99,WNW,300,1.0,-999.0,36,-99.99,,,-99.99,,2013-06-26 15:22:00,
2013-06-26 09:34:00,61.0,32.0,29.99,West,267,1.0,-999.0,34,-99.99,,,-99.99,,2013-06-26 15:34:00,
2013-06-26 09:44:00,62.0,33.0,30.00,West,261,1.0,-999.0,34,-99.99,,,-99.99,,2013-06-26 15:44:00,
2013-06-26 09:53:00,62.0,33.0,30.00,West,261,1.0,-999.0,34,-99.99,,,-99.99,,2013-06-26 15:53:00,
2013-06-26 10:01:00,63.0,33.0,30.00,West,271,0.0,-999.0,32,-99.99,,,-99.99,,2013-06-26 16:01:00,
2013-06-26 10:11:00,64.0,31.0,30.00,NE,42,1.0,-999.0,29,-99.99,,,-99.99,,2013-06-26 16:11:00,
2013-06-26 10:22:00,64.0,31.0,30.00,NE,42,1.0,-999.0,29,-99.99,,,-99.99,,2013-06-26 16:22:00,
2013-06-26 10:34:00,65.0,33.0,30.00,WSW,244,2.0,-999.0,30,-99.99,,,-99.99,,2013-06-26 16:34:00,
2013-06-26 10:43:00,65.0,31.0,30.00,East,88,1.0,-999.0,28,-99.99,,,-99.99,,2013-06-26 16:43:00,
2013-06-26 10:52:00,65.0,31.0,30.00,East,88,1.0,-999.0,28,-99.99,,,-99.99,,2013-06-26 16:52:00,
2013-06-26 11:01:00,66.0,32.0,29.99,ENE,59,1.0,-999.0,28,-99.99,,,-99.99,,2013-06-26 17:01:00,
2013-06-26 11:11:00,67.0,31.0,29.99,South,191,2.0,-999.0,26,-99.99,,,-99.99,,2013-06-26 17:11:00,
2013-06-26 11:23:00,67.0,31.0,29.99,South,191,2.0,-999.0,26,-99.99,,,-99.99,,2013-06-26 17:23:00,
2013-06-26 11:33:00,67.0,31.0,29.99,ENE,63,2.0,-999.0,26,-99.99,,,-99.99,,2013-06-26 17:33:00,
2013-06-26 11:43:00,68.0,32.0,29.98,SSE,165,2.0,-999.0,26,-99.99,,,-99.99,,2013-06-26 17:43:00,
2013-06-26 11:52:00,68.0,32.0,29.98,SSE,165,2.0,-999.0,26,-99.99,,,-99.99,,2013-06-26 17:52:00,
2013-06-26 12:01:00,68.0,31.0,29.99,East,90,2.0,-999.0,25,-99.99,,,-99.99,,2013-06-26 18:01:00,
2013-06-26 12:11:00,69.0,33.0,29.98,SSW,210,2.0,-999.0,26,-99.99,,,-99.99,,2013-06-26 18:11:00,
2013-06-26 12:22:00,69.0,33.0,29.98,SSW,210,2.0,-999.0,26,-99.99,,,-99.99,,2013-06-26 18:22:00,
2013-06-26 12:34:00,70.0,34.0,29.98,East,88,3.0,-999.0,26,-99.99,,,-99.99,,2013-06-26 18:34:00,
2013-06-26 12:43:00,71.0,32.0,29.98,SSW,208,2.0,-999.0,24,-99.99,,,-99.99,,2013-06-26 18:43:00,
2013-06-26 12:52:00,71.0,32.0,29.98,SSW,208,2.0,-999.0,24,-99.99,,,-99.99,,2013-06-26 18:52:00,
2013-06-26 13:01:00,71.0,31.0,29.98,SSW,213,2.0,-999.0,23,-99.99,,,-99.99,,2013-06-26 19:01:00,
2013-06-26 13:11:00,72.0,33.0,29.97,ENE,78,2.0,-999.0,24,-99.99,,,-99.99,,2013-06-26 19:11:00,
2013-06-26 13:22:00,72.0,33.0,29.97,ENE,78,2.0,-999.0,24,-99.99,,,-99.99,,2013-06-26 19:22:00,
2013-06-26 13:33:00,72.0,32.0,29.97,West,276,1.0,-999.0,23,-99.99,,,-99.99,,2013-06-26 19:33:00,
2013-06-26 13:42:00,72.0,33.0,29.96,West,265,2.0,-999.0,24,-99.99,,,-99.99,,2013-06-26 19:42:00,
2013-06-26 13:52:00,72.0,33.0,29.96,West,265,2.0,-999.0,24,-99.99,,,-99.99,,2013-06-26 19:52:00,
2013-06-26 14:01:00,73.0,34.0,29.94,East,98,1.0,-999.0,24,-99.99,,,-99.99,,2013-06-26 20:01:00,
2013-06-26 14:12:00,74.0,33.0,29.95,NE,54,2.0,-999.0,22,-99.99,,,-99.99,,2013-06-26 20:12:00,
2013-06-26 14:22:00,74.0,33.0,29.95,NE,54,2.0,-999.0,22,-99.99,,,-99.99,,2013-06-26 20:22:00,
2013-06-26 14:33:00,73.0,32.0,29.94,WSW,250,1.0,-999.0,22,-99.99,,,-99.99,,2013-06-26 20:33:00,
2013-06-26 14:43:00,74.0,33.0,29.94,SSE,148,1.0,-999.0,22,-99.99,,,-99.99,,2013-06-26 20:43:00,
2013-06-26 14:52:00,74.0,33.0,29.94,SSE,148,1.0,-999.0,22,-99.99,,,-99.99,,2013-06-26 20:52:00,
2013-06-26 15:02:00,74.0,33.0,29.93,NNE,17,2.0,-999.0,22,-99.99,,,-99.99,,2013-06-26 21:02:00,
2013-06-26 15:11:00,75.0,34.0,29.92,SE,135,2.0,-999.0,22,-99.99,,,-99.99,,2013-06-26 21:11:00,
2013-06-26 15:23:00,75.0,34.0,29.92,SE,135,2.0,-999.0,22,-99.99,,,-99.99,,2013-06-26 21:23:00,
2013-06-26 15:33:00,74.0,33.0,29.93,East,84,2.0,-999.0,22,-99.99,,,-99.99,,2013-06-26 21:33:00,
2013-06-26 15:43:00,75.0,34.0,29.92,SSW,202,2.0,-999.0,22,-99.99,,,-99.99,,2013-06-26 21:43:00,
2013-06-26 15:52:00,75.0,34.0,29.92,SSW,202,2.0,-999.0,22,-99.99,,,-99.99,,2013-06-26 21:52:00,
2013-06-26 16:01:00,76.0,33.0,29.92,SE,127,2.0,-999.0,21,-99.99,,,-99.99,,2013-06-26 22:01:00,
2013-06-26 16:11:00,77.0,33.0,29.92,ENE,58,1.0,-999.0,20,-99.99,,,-99.99,,2013-06-26 22:11:00,
2013-06-26 16:22:00,77.0,33.0,29.92,ENE,58,1.0,-999.0,20,-99.99,,,-99.99,,2013-06-26 22:22:00,
2013-06-26 16:33:00,77.0,33.0,29.91,SSE,155,2.0,-999.0,20,-99.99,,,-99.99,,2013-06-26 22:33:00,
2013-06-26 16:43:00,76.0,33.0,29.90,WNW,300,2.0,-999.0,21,-99.99,,,-99.99,,2013-06-26 22:43:00,
2013-06-26 16:52:00,76.0,33.0,29.90,WNW,300,2.0,-999.0,21,-99.99,,,-99.99,,2013-06-26 22:52:00,
2013-06-26 17:01:00,76.0,33.0,29.91,SW,220,1.0,-999.0,21,-99.99,,,-99.99,,2013-06-26 23:01:00,
2013-06-26 17:11:00,75.0,34.0,29.91,ESE,106,0.0,-999.0,22,-99.99,,,-99.99,,2013-06-26 23:11:00,
2013-06-26 17:22:00,75.0,34.0,29.91,ESE,106,0.0,-999.0,22,-99.99,,,-99.99,,2013-06-26 23:22:00,
2013-06-26 17:34:00,73.0,33.0,29.90,North,355,0.0,-999.0,23,-99.99,,,-99.99,,2013-06-26 23:34:00,
2013-06-26 17:43:00,74.0,34.0,29.90,WSW,246,0.0,-999.0,23,-99.99,,,-99.99,,2013-06-26 23:43:00,
2013-06-26 17:52:00,74.0,34.0,29.90,WSW,246,0.0,-999.0,23,-99.99,,,-99.99,,2013-06-26 23:52:00,
2013-06-26 18:01:00,75.0,34.0,29.89,SSW,192,2.0,-999.0,22,-99.99,,,-99.99,,2013-06-27 00:01:00,
2013-06-26 18:11:00,73.0,34.0,29.90,South,169,0.0,-999.0,24,-99.99,,,-99.99,,2013-06-27 00:11:00,
2013-06-26 18:22:00,73.0,34.0,29.90,South,169,0.0,-999.0,24,-99.99,,,-99.99,,2013-06-27 00:22:00,
2013-06-26 18:33:00,74.0,35.0,29.90,South,178,1.0,-999.0,24,-99.99,,,-99.99,,2013-06-27 00:33:00,
2013-06-26 18:42:00,74.0,35.0,29.90,South,178,1.0,-999.0,24,-99.99,,,-99.99,,2013-06-27 00:42:00,
2013-06-26 18:53:00,73.0,35.0,29.91,SSE,150,0.0,-999.0,25,-99.99,,,-99.99,,2013-06-27 00:53:00,
2013-06-26 19:01:00,73.0,35.0,29.91,SSE,150,0.0,-999.0,25,-99.99,,,-99.99,,2013-06-27 01:01:00,
2013-06-26 19:11:00,73.0,35.0,29.91,SSE,150,0.0,-999.0,25,-99.99,,,-99.99,,2013-06-27 01:11:00,
2013-06-26 19:21:00,72.0,35.0,29.91,NNE,22,0.0,-999.0,26,-99.99,,,-99.99,,2013-06-27 01:21:00,
2013-06-26 19:32:00,72.0,35.0,29.91,NNE,22,0.0,-999.0,26,-99.99,,,-99.99,,2013-06-27 01:32:00,
2013-06-26 19:43:00,72.0,35.0,29.91,NNE,22,0.0,-999.0,26,-99.99,,,-99.99,,2013-06-27 01:43:00,
2013-06-26 19:53:00,69.0,35.0,29.90,ENE,57,0.0,-999.0,28,-99.99,,,-99.99,,2013-06-27 01:53:00,
2013-06-26 20:01:00,69.0,35.0,29.90,ENE,57,0.0,-999.0,28,-99.99,,,-99.99,,2013-06-27 02:01:00,
2013-06-26 20:11:00,69.0,35.0,29.90,ENE,57,0.0,-999.0,28,-99.99,,,-99.99,,2013-06-27 02:11:00,
2013-06-26 20:22:00,69.0,35.0,29.90,ENE,57,0.0,-999.0,29,-99.99,,,-99.99,,2013-06-27 02:22:00,
2013-06-26 20:32:00,69.0,35.0,29.90,ENE,57,0.0,-999.0,29,-99.99,,,-99.99,,2013-06-27 02:32:00,
2013-06-26 20:42:00,69.0,35.0,29.90,ENE,57,0.0,-999.0,29,-99.99,,,-99.99,,2013-06-27 02:42:00,
2013-06-26 20:52:00,69.0,35.0,29.90,ENE,57,0.0,-999.0,29,-99.99,,,-99.99,,2013-06-27 02:52:00,
2013-06-26 21:02:00,63.0,33.0,29.92,ESE,107,0.0,-999.0,33,-99.99,,,-99.99,,2013-06-27 03:02:00,
2013-06-26 21:11:00,63.0,33.0,29.92,ESE,107,0.0,-999.0,33,-99.99,,,-99.99,,2013-06-27 03:11:00,
2013-06-26 21:21:00,63.0,33.0,29.92,ESE,107,0.0,-999.0,33,-99.99,,,-99.99,,2013-06-27 03:21:00,
2013-06-26 21:32:00,63.0,33.0,29.92,ESE,107,0.0,-999.0,33,-99.99,,,-99.99,,2013-06-27 03:32:00,
2013-06-26 21:42:00,63.0,33.0,29.92,ESE,107,0.0,-999.0,33,-99.99,,,-99.99,,2013-06-27 03:42:00,
2013-06-26 21:52:00,61.0,34.0,29.95,ESE,106,0.0,-999.0,36,-99.99,,,-99.99,,2013-06-27 03:52:00,
2013-06-26 22:01:00,61.0,34.0,29.95,ESE,106,0.0,-999.0,36,-99.99,,,-99.99,,2013-06-27 04:01:00,
2013-06-26 22:11:00,61.0,34.0,29.95,ESE,106,0.0,-999.0,36,-99.99,,,-99.99,,2013-06-27 04:11:00,
2013-06-26 22:32:00,61.0,34.0,29.95,ESE,106,0.0,-999.0,36,-99.99,,,-99.99,,2013-06-27 04:32:00,
2013-06-26 22:42:00,57.0,32.0,29.96,ESE,106,0.0,-999.0,38,-99.99,,,-99.99,,2013-06-27 04:42:00,
2013-06-26 22:53:00,57.0,32.0,29.96,ESE,106,0.0,-999.0,38,-99.99,,,-99.99,,2013-06-27 04:53:00,
2013-06-26 23:02:00,57.0,32.0,29.97,ESE,106,0.0,-999.0,39,-99.99,,,-99.99,,2013-06-27 05:02:00,
2013-06-26 23:12:00,57.0,32.0,29.97,ESE,106,0.0,-999.0,39,-99.99,,,-99.99,,2013-06-27 05:12:00,
2013-06-26 23:21:00,57.0,32.0,29.97,ESE,106,0.0,-999.0,39,-99.99,,,-99.99,,2013-06-27 05:21:00,
2013-06-26 23:32:00,56.0,31.0,29.97,ESE,106,0.0,-999.0,39,-99.99,,,-99.99,,2013-06-27 05:32:00,
2013-06-26 23:42:00,54.0,30.0,29.98,ESE,106,0.0,-999.0,40,-99.99,,,-99.99,,2013-06-27 05:42:00,
2013-06-26 23:53:00,54.0,30.0,29.98,ESE,106,0.0,-999.0,40,-99.99,,,-99.99,,2013-06-27 05:53:00,